Weather History for Washington, PA

Change the Weather History Date:

Tuesday, February 19, 2013

  Actual Average Record
Temperature  
Mean Temperature 34 °F -  
Max Temperature 44 °F 39 °F 57 °F (1997)
Min Temperature 24 °F 23 °F 1 °F (2006)
Degree Days  
Heating Degree Days 31    
Moisture  
Dew Point 27 °F    
Average Humidity 73    
Maximum Humidity 93    
Minimum Humidity 46    
Precipitation  
Precipitation 0.00 in - - ()
Sea Level Pressure  
Sea Level Pressure 29.83 in    
Wind  
Wind Speed 12 mph (SW)    
Max Wind Speed 23 mph    
Max Gust Speed 33 mph    
Visibility 10 miles    
Events      
Averages and records for this station are not official NWS values.
T = Trace of Precipitation, MM = Missing Value Source: NWS Daily Summary

Daily Weather History Graph

Daily Weather History Graph

Search for Another Location

Airport:

Trip Planner

Search our weather history database for the weather conditions in past years. The results will help you decide how hot, cold, wet, or windy it might be!

Date:

Astronomy

Feb. 19, 2013 Rise Set
Actual Time 7:08 AM EST 6:01 PM EST
Civil Twilight 6:41 AM EST 6:29 PM EST
Nautical Twilight 6:09 AM EST 7:01 PM EST
Astronomical Twilight 5:38 AM EST 7:32 PM EST
Moon 12:32 PM EST (2/19) 2:39 AM EST (2/19)
Length of Visible Light 11h 48m
Length of Day
10h 53m
Waxing Gibbous, 67% of the Moon is Illuminated
Feb 19
Waxing Gibbous
Feb 25
Full
Mar 4
Last Quarter
Mar 11
New
Mar 19
First Quarter

Hourly Weather History & Observations

Time (EST) Temp. Windchill Dew Point Humidity Pressure Visibility Wind Dir Wind Speed Gust Speed Precip Events Conditions
12:15 AM 42.8 °F 38.6 °F 26.6 °F 53% 29.89 in 10.0 mi South 6.9 mph - N/A   Clear
12:35 AM 42.8 °F 37.5 °F 26.6 °F 53% 29.89 in 10.0 mi South 9.2 mph - N/A   Clear
12:55 AM 44.6 °F 39.7 °F 26.6 °F 49% 29.89 in 10.0 mi South 9.2 mph - N/A   Partly Cloudy
1:15 AM 42.8 °F 37.5 °F 24.8 °F 49% 29.89 in 10.0 mi South 9.2 mph - N/A   Scattered Clouds
1:35 AM 44.6 °F 39.7 °F 24.8 °F 46% 29.87 in 10.0 mi South 9.2 mph - N/A   Overcast
1:55 AM 44.6 °F 38.8 °F 24.8 °F 46% 29.87 in 10.0 mi South 11.5 mph 17.3 mph N/A   Mostly Cloudy
2:15 AM 44.6 °F 40.2 °F 24.8 °F 46% 29.87 in 10.0 mi South 8.1 mph - N/A   Scattered Clouds
2:35 AM 44.6 °F 40.7 °F 24.8 °F 46% 29.88 in 10.0 mi SSW 6.9 mph - N/A   Overcast
2:55 AM 44.6 °F 39.2 °F 26.6 °F 49% 29.86 in 10.0 mi South 10.4 mph 20.7 mph N/A   Mostly Cloudy
3:15 AM 44.6 °F 37.4 °F 28.4 °F 53% 29.87 in 10.0 mi SSW 16.1 mph 25.3 mph N/A   Mostly Cloudy
3:35 AM 42.8 °F 33.8 °F 33.8 °F 70% 29.85 in 10.0 mi SW 21.9 mph 28.8 mph N/A   Overcast
3:55 AM 41.0 °F 33.5 °F 33.8 °F 76% 29.84 in 10.0 mi South 13.8 mph 26.5 mph N/A   Overcast
4:15 AM 39.2 °F 32.0 °F 35.6 °F 87% 29.83 in 10.0 mi South 11.5 mph 18.4 mph N/A   Overcast
4:35 AM 39.2 °F 32.0 °F 35.6 °F 87% 29.82 in 10.0 mi South 11.5 mph 16.1 mph N/A   Overcast
4:55 AM 39.2 °F 33.0 °F 35.6 °F 87% 29.80 in 10.0 mi South 9.2 mph 17.3 mph N/A   Mostly Cloudy
5:15 AM 39.2 °F 33.0 °F 35.6 °F 87% 29.79 in 10.0 mi South 9.2 mph 16.1 mph N/A   Overcast
5:35 AM 39.2 °F 32.5 °F 35.6 °F 87% 29.79 in 10.0 mi South 10.4 mph - N/A   Overcast
5:55 AM 39.2 °F 32.5 °F 35.6 °F 87% 29.78 in 10.0 mi South 10.4 mph 18.4 mph N/A   Overcast
6:15 AM 39.2 °F 32.0 °F 35.6 °F 87% 29.77 in 10.0 mi SSW 11.5 mph 21.9 mph N/A   Overcast
6:55 AM 39.2 °F 32.0 °F 35.6 °F 87% 29.75 in 10.0 mi South 11.5 mph 18.4 mph N/A   Overcast
7:35 AM 39.2 °F 31.6 °F 35.6 °F 87% 29.75 in 10.0 mi South 12.7 mph 18.4 mph N/A   Overcast
7:55 AM 39.2 °F 31.2 °F 35.6 °F 87% 29.75 in 10.0 mi South 13.8 mph 20.7 mph N/A   Overcast
8:15 AM 39.2 °F 33.0 °F 35.6 °F 87% 29.74 in 10.0 mi South 9.2 mph 20.7 mph N/A   Overcast
8:35 AM 39.2 °F 31.6 °F 35.6 °F 87% 29.74 in 10.0 mi South 12.7 mph 20.7 mph N/A   Overcast
8:55 AM 39.2 °F 32.5 °F 35.6 °F 87% 29.74 in 10.0 mi South 10.4 mph 19.6 mph N/A   Overcast
9:15 AM 39.2 °F 31.6 °F 35.6 °F 87% 29.73 in 10.0 mi South 12.7 mph 17.3 mph N/A   Overcast
9:35 AM 39.2 °F 32.0 °F 35.6 °F 87% 29.73 in 10.0 mi SSW 11.5 mph 20.7 mph N/A   Overcast
9:55 AM 39.2 °F 32.0 °F 37.4 °F 93% 29.73 in 10.0 mi SSW 11.5 mph 25.3 mph N/A   Overcast
10:35 AM 42.8 °F 36.2 °F 37.4 °F 81% 29.71 in 10.0 mi SSW 12.7 mph 25.3 mph N/A   Overcast
10:55 AM 42.8 °F 35.4 °F 37.4 °F 81% 29.71 in 10.0 mi SSW 15.0 mph 24.2 mph N/A   Overcast
11:15 AM 42.8 °F 34.5 °F 37.4 °F 81% 29.73 in 5.0 mi West 18.4 mph 25.3 mph N/A   Overcast
11:35 AM 37.4 °F 28.2 °F 33.8 °F 87% 29.74 in 10.0 mi WSW 16.1 mph 26.5 mph N/A   Overcast
11:55 AM 37.4 °F 29.8 °F 33.8 °F 87% 29.74 in 7.0 mi WSW 11.5 mph 20.7 mph N/A   Overcast
12:15 PM 35.6 °F 25.9 °F 33.8 °F 93% 29.74 in 10.0 mi WSW 16.1 mph 24.2 mph N/A   Overcast
12:35 PM 35.6 °F 26.2 °F 32.0 °F 87% 29.75 in 10.0 mi WSW 15.0 mph 26.5 mph N/A   Overcast
1:15 PM 37.4 °F 26.6 °F 30.2 °F 75% 29.75 in 10.0 mi WSW 21.9 mph 28.8 mph N/A   Overcast
1:35 PM 37.4 °F 27.8 °F 28.4 °F 70% 29.75 in 10.0 mi West 17.3 mph 33.4 mph N/A   Overcast
1:55 PM 35.6 °F 25.9 °F 28.4 °F 75% 29.76 in 10.0 mi WSW 16.1 mph 28.8 mph N/A   Overcast
2:15 PM 33.8 °F 22.8 °F 26.6 °F 75% 29.77 in 10.0 mi WSW 18.4 mph 29.9 mph N/A   Overcast
2:35 PM 33.8 °F 21.9 °F 26.6 °F 75% 29.77 in 10.0 mi WSW 21.9 mph 31.1 mph N/A   Overcast
2:55 PM 33.8 °F 22.8 °F 26.6 °F 75% 29.78 in 10.0 mi WSW 18.4 mph 26.5 mph N/A   Overcast
3:15 PM 33.8 °F 23.5 °F 26.6 °F 75% 29.78 in 8.0 mi WSW 16.1 mph 24.2 mph N/A   Overcast
3:35 PM 33.8 °F 23.2 °F 24.8 °F 70% 29.79 in 10.0 mi West 17.3 mph 28.8 mph N/A   Overcast
3:55 PM 33.8 °F 23.2 °F 23.0 °F 65% 29.80 in 10.0 mi WSW 17.3 mph 25.3 mph N/A   Overcast
4:15 PM 32.0 °F 21.2 °F 24.8 °F 75% 29.81 in 10.0 mi West 16.1 mph 26.5 mph N/A   Overcast
4:35 PM 30.2 °F 19.3 °F 24.8 °F 80% 29.82 in 9.0 mi West 15.0 mph 25.3 mph N/A   Mostly Cloudy
4:55 PM 30.2 °F 17.8 °F 24.8 °F 80% 29.82 in 10.0 mi WSW 19.6 mph 27.6 mph N/A   Overcast
5:15 PM 30.2 °F 17.8 °F 24.8 °F 80% 29.83 in 8.0 mi WSW 19.6 mph 28.8 mph N/A   Overcast
5:35 PM 30.2 °F 18.5 °F 24.8 °F 80% 29.86 in 2.5 mi West 17.3 mph 24.2 mph N/A   Overcast
5:55 PM 28.4 °F 14.4 °F 21.2 °F 74% 29.87 in 10.0 mi WSW 23.0 mph 31.1 mph N/A   Mostly Cloudy
6:15 PM 28.4 °F 15.4 °F 19.4 °F 69% 29.88 in 10.0 mi WSW 19.6 mph 26.5 mph N/A   Overcast
7:35 PM 28.4 °F 18.0 °F 19.4 °F 69% 29.91 in 10.0 mi West 12.7 mph 21.9 mph N/A   Overcast
7:55 PM 26.6 °F 14.7 °F 19.4 °F 74% 29.92 in 4.0 mi WSW 15.0 mph 29.9 mph N/A   Overcast
8:15 PM 26.6 °F 15.2 °F 15.8 °F 64% 29.93 in 10.0 mi West 13.8 mph 32.2 mph N/A   Overcast
8:35 PM 26.6 °F 14.3 °F 15.8 °F 64% 29.93 in 10.0 mi West 16.1 mph 27.6 mph N/A   Overcast
8:55 PM 26.6 °F 13.1 °F 14.0 °F 59% 29.94 in 10.0 mi West 19.6 mph 27.6 mph N/A   Overcast
9:15 PM 26.6 °F 15.2 °F 14.0 °F 59% 29.94 in 10.0 mi West 13.8 mph 27.6 mph N/A   Overcast
9:35 PM 26.6 °F 15.2 °F 14.0 °F 59% 29.94 in 10.0 mi West 13.8 mph 20.7 mph N/A   Overcast
9:55 PM 26.6 °F 13.1 °F 15.8 °F 64% 29.94 in 10.0 mi WSW 19.6 mph 28.8 mph N/A   Overcast
10:15 PM 24.8 °F 11.9 °F 15.8 °F 69% 29.95 in 10.0 mi West 16.1 mph 26.5 mph N/A   Overcast
10:55 PM 24.8 °F 11.5 °F 15.8 °F 69% 29.95 in 10.0 mi WSW 17.3 mph 26.5 mph N/A   Overcast
11:15 PM 24.8 °F 11.9 °F 14.0 °F 64% 29.96 in 10.0 mi WSW 16.1 mph 26.5 mph N/A   Overcast
11:35 PM 24.8 °F 12.9 °F 14.0 °F 64% 29.96 in 10.0 mi WSW 13.8 mph 28.8 mph N/A   Overcast
11:55 PM 24.8 °F 13.4 °F 15.8 °F 69% 29.97 in 10.0 mi WSW 12.7 mph 19.6 mph N/A   Overcast